Location: High Cliff State Park
(44.1557°N, 88.2948°W)
Time: 13:54:49
(UTC-06:00)

Amateur Radio Satellites - All Passes

Search period start: 01 March 2017 13:24
Search period end: 02 March 2017 13:24
Location: High Cliff State Park, 44.1557°N, 88.2948°W

Satellite Date Start Highest point End Downlink Frequencies (MHz)
Time Altitude Azimuth
ITUPSAT 1 01 Mar 13:26:52 13:28:15 11° 88° (E) 13:29:37 437.325
BEESAT 01 Mar 13:29:45 13:31:44 12° 89° (E) 13:33:42 436.000
VELOX 1 01 Mar 13:31:11 13:34:13 19° 297° (WNW) 13:37:16 145.980
AO-7 01 Mar 13:32:34 13:40:26 48° 61° (ENE) 13:48:17 .
Oscar 19 01 Mar 13:40:46 13:44:40 22° 267° (W) 13:48:34 437.125/150
50 SAT 01 Mar 13:45:33 13:46:40 11° 297° (WNW) 13:47:46 437.505
BEESAT 3 01 Mar 13:46:06 13:50:07 68° 238° (WSW) 13:54:05 437.485
ITAMSAT 1 01 Mar 14:22:52 14:28:05 78° 256° (WSW) 14:33:22 435.822/435.867
BEESAT 2 01 Mar 14:34:50 14:38:46 50° 241° (WSW) 14:42:41 435.950
PCSat 01 Mar 14:35:23 14:40:26 42° 113° (ESE) 14:45:32 145.827
RS-15 01 Mar 14:41:51 14:50:18 23° 98° (E) 14:58:56 29.354- 29.394
MOZHAYETS 4 01 Mar 14:44:53 14:48:47 27° 94° (E) 14:52:40
ITUPSAT 1 01 Mar 15:01:52 15:06:42 84° 285° (WNW) 15:11:28 437.325
BEESAT 01 Mar 15:05:16 15:10:04 76° 285° (WNW) 15:14:49 436.000
AO-7 01 Mar 15:25:23 15:33:14 44° 260° (W) 15:41:07 .
NO-84 01 Mar 15:29:18 15:32:24 67° 139° (SE) 15:35:48 435.350 FM
DOVE 4 01 Mar 15:46:21 15:47:47 12° 60° (ENE) 15:49:14 437.250
CUBESAT XI-V 01 Mar 15:57:00 16:00:47 25° 94° (E) 16:04:33 437.345
KAITUO 1B 01 Mar 16:05:43 16:07:11 12° 63° (ENE) 16:08:38 145.475/437.950
CUTE-I 01 Mar 16:06:28 16:10:30 22° 61° (ENE) 16:14:33 437.470
XW-2F 01 Mar 16:17:06 16:19:49 19° 66° (ENE) 16:22:33 145.980 - 146.000
KKS-1 01 Mar 16:17:32 16:21:59 60° 101° (ESE) 16:26:24 437.445
PCSat 01 Mar 16:19:02 16:23:55 33° 312° (NW) 16:28:51 145.827
MOZHAYETS 4 01 Mar 16:21:51 16:25:58 33° 292° (WNW) 16:30:02
XW-2D 01 Mar 16:24:18 16:27:23 23° 68° (ENE) 16:30:30 145.860 - 145.880
XW-2B 01 Mar 16:29:19 16:32:32 26° 69° (ENE) 16:35:47 145.730 - 145.750
NUDT-PHONESAT 01 Mar 16:32:57 16:35:58 23° 68° (ENE) 16:39:00 437.300
XW-2C 01 Mar 16:37:54 16:41:21 32° 70° (ENE) 16:44:50 145.795 - 145.815
STARS 01 Mar 16:38:12 16:42:29 45° 99° (E) 16:46:44 437.465
ITUPSAT 1 01 Mar 16:42:13 16:43:44 11° 303° (WNW) 16:45:15 437.325
BEESAT 01 Mar 16:46:16 16:46:59 10° 304° (NW) 16:47:43 436.000
RS-15 01 Mar 16:48:54 17:00:52 84° 121° (ESE) 17:13:18 29.354- 29.394
HO-68 01 Mar 16:51:29 16:56:31 21° 54° (NE) 17:01:31 435.675
LilacSat-2 01 Mar 16:59:31 17:03:21 61° 74° (ENE) 17:07:12 437.200
M-CUBED/EXP-1 PRIME 01 Mar 17:04:16 17:07:46 29° 103° (ESE) 17:11:28 437.505
NO-84 01 Mar 17:07:37 17:10:22 23° 340° (NNW) 17:13:19 435.350 FM
DOVE 4 01 Mar 17:20:44 17:24:51 73° 259° (W) 17:29:07 437.250
CUTE 1.7 + AOD 2 01 Mar 17:33:46 17:36:43 19° 65° (ENE) 17:39:41 437.475
CUBESAT XI-V 01 Mar 17:34:03 17:38:14 35° 291° (WNW) 17:42:24 437.345
KAITUO 1B 01 Mar 17:36:56 17:40:42 59° 259° (W) 17:44:30 145.475/437.950
CUTE-I 01 Mar 17:44:54 17:50:08 56° 260° (W) 17:55:26 437.470
XW-2F 01 Mar 17:50:12 17:53:44 35° 263° (W) 17:57:17 145.980 - 146.000
KKS-1 01 Mar 17:55:23 17:58:04 16° 299° (WNW) 18:00:45 437.445
XW-2D 01 Mar 17:58:10 18:01:29 27° 265° (W) 18:04:49 145.860 - 145.880
AAUSAT CUBESAT 2 01 Mar 17:58:21 17:59:37 11° 61° (ENE) 18:00:52 437.432
XW-2A 01 Mar 18:02:12 18:05:29 46° 74° (ENE) 18:08:48 145.665 - 145.685
XW-2B 01 Mar 18:03:30 18:06:41 24° 265° (W) 18:09:54 145.730 - 145.750
NUDT-PHONESAT 01 Mar 18:06:35 18:09:47 26° 265° (W) 18:13:02 437.300
XW-2C 01 Mar 18:12:47 18:15:38 19° 267° (W) 18:18:29 145.795 - 145.815
STARS 01 Mar 18:15:17 18:18:31 20° 296° (WNW) 18:21:43 437.465
STRAND 1 01 Mar 18:18:46 18:22:32 20° 92° (E) 18:26:16 437.568
SEEDS 01 Mar 18:20:38 18:24:30 37° 70° (ENE) 18:28:24 437.485
AO-73 01 Mar 18:30:02 18:32:09 13° 60° (ENE) 18:34:16 145.935
Oscar 11 01 Mar 18:31:30 18:32:43 11° 60° (ENE) 18:33:57 .
YUBILEINY 01 Mar 18:32:06 18:35:51 13° 52° (NE) 18:39:36 435.215
HO-68 01 Mar 18:36:10 18:43:22 88° 257° (WSW) 18:50:35 435.675
LilacSat-2 01 Mar 18:37:05 18:38:01 11° 271° (W) 18:38:58 437.200
M-CUBED/EXP-1 PRIME 01 Mar 18:38:54 18:42:08 26° 297° (WNW) 18:45:34 437.505
CUBEBUG 2 01 Mar 18:41:09 18:45:26 43° 70° (ENE) 18:49:52 437.445
NO-84 01 Mar 18:46:52 18:49:05 15° 2° (N) 18:51:24 435.350 FM
RS-15 01 Mar 19:03:37 19:14:52 41° 328° (NNW) 19:26:23 29.354- 29.394
UWE-3 01 Mar 19:08:01 19:12:24 52° 72° (ENE) 19:16:56 435.000/436.395/437.385
CUTE 1.7 + AOD 2 01 Mar 19:08:09 19:12:15 44° 262° (W) 19:16:21 437.475
ZACube-1 01 Mar 19:18:02 19:22:15 40° 70° (ENE) 19:26:33 437.345
AAUSAT CUBESAT 2 01 Mar 19:30:20 19:34:28 76° 259° (WSW) 19:38:38 437.432
XW-2A 01 Mar 19:37:49 19:38:32 11° 270° (W) 19:39:16 145.665 - 145.685
STRAND 1 01 Mar 19:57:00 20:02:02 54° 289° (WNW) 20:07:01 437.568
SEEDS 01 Mar 19:57:08 20:00:18 20° 267° (W) 20:03:29 437.485
AO-73 01 Mar 20:03:13 20:07:44 77° 258° (WSW) 20:12:20 145.935
Oscar 11 01 Mar 20:03:49 20:08:10 85° 253° (WSW) 20:12:34 .
CUBEBUG 2 01 Mar 20:18:54 20:22:15 20° 269° (W) 20:25:43 437.445
DELFI C3 01 Mar 20:19:10 20:22:54 43° 72° (ENE) 20:26:40 145.870
NO-84 01 Mar 20:24:32 20:27:46 25° 22° (NNE) 20:31:11 435.350 FM
YUBILEINY 01 Mar 20:26:12 20:34:52 61° 77° (ENE) 20:43:25 435.215
HO-68 01 Mar 20:27:43 20:32:01 17° 272° (W) 20:36:20 435.675
SO-50 01 Mar 20:39:18 20:43:49 50° 119° (ESE) 20:48:17 436.795
UWE-3 01 Mar 20:46:13 20:49:11 17° 270° (W) 20:52:12 435.000/436.395/437.385
FO-29 01 Mar 20:50:53 20:53:14 12° 80° (E) 20:55:31 435.910
ZACube-1 01 Mar 20:55:12 20:58:41 22° 268° (W) 21:02:13 437.345
LO-87 01 Mar 21:06:47 21:09:14 18° 67° (ENE) 21:11:43 145.935 - 145.965
O/OREOS (USA 219) 01 Mar 21:11:31 21:15:43 41° 107° (ESE) 21:19:57 437.305
ESTCUBE 1 01 Mar 21:14:23 21:17:08 16° 62° (ENE) 21:19:52 437.505/2401.250
PRISM 01 Mar 21:19:48 21:23:50 58° 102° (ESE) 21:27:51 437.425
RS-15 01 Mar 21:21:47 21:31:58 28° 2° (N) 21:42:06 29.354- 29.394
TIGRISAT 01 Mar 21:25:00 21:29:06 29° 95° (E) 21:33:06 435.000
UNISAT 6 01 Mar 21:26:12 21:30:24 32° 96° (E) 21:34:32 437.425
PCSat 01 Mar 21:39:46 21:41:54 12° 30° (NNE) 21:44:03 145.827
DELFI C3 01 Mar 21:55:36 21:57:55 15° 269° (W) 22:00:16 145.870
NO-84 01 Mar 22:01:49 22:05:47 81° 221° (SW) 22:10:03 435.350 FM
SO-50 01 Mar 22:20:37 22:24:31 26° 318° (NW) 22:28:23 436.795
SPROUT 01 Mar 22:23:14 22:26:26 21° 65° (ENE) 22:29:39 437.525
YUBILEINY 01 Mar 22:23:48 22:31:05 31° 277° (W) 22:38:21 435.215
DX 1 01 Mar 22:29:11 22:31:32 14° 61° (ENE) 22:33:53 434.975-435.025
UKube-1 01 Mar 22:32:12 22:33:27 11° 59° (ENE) 22:34:43 .
FO-29 01 Mar 22:32:18 22:39:50 68° 101° (E) 22:46:30 435.910
LO-87 01 Mar 22:39:21 22:42:30 30° 263° (W) 22:45:40 145.935 - 145.965
DUCHIFAT 1 01 Mar 22:43:15 22:45:42 15° 91° (E) 22:48:07 145.980
50 SAT 01 Mar 22:46:13 22:49:06 25° 69° (ENE) 22:52:01 437.505
ESTCUBE 1 01 Mar 22:49:01 22:53:27 59° 259° (W) 22:57:55 437.505/2401.250
O/OREOS (USA 219) 01 Mar 22:51:41 22:55:17 23° 306° (NW) 22:58:55 437.305
VELOX 1 01 Mar 22:52:16 22:56:30 51° 72° (ENE) 23:00:46 145.980
PRISM 01 Mar 22:56:33 22:58:39 14° 298° (WNW) 23:00:46 437.425
EO-79 01 Mar 22:59:10 23:02:48 26° 95° (E) 23:06:23 145.935-145.965
TIGRISAT 01 Mar 23:01:35 23:05:44 32° 292° (WNW) 23:09:50 435.000
UNISAT 6 01 Mar 23:02:58 23:07:01 29° 293° (WNW) 23:11:00 437.425
NANOSAT C BR1 01 Mar 23:12:41 23:16:35 33° 97° (E) 23:20:27 145.865
POLYITAN 1 01 Mar 23:18:00 23:22:06 41° 98° (E) 23:26:09 437.675
BUGSAT 1 01 Mar 23:19:52 23:21:51 13° 90° (E) 23:23:50 437.445
AIST 2D 01 Mar 23:20:52 23:24:27 84° 103° (ESE) 23:27:58 435.315
QB50P2 01 Mar 23:21:09 23:25:20 48° 99° (E) 23:29:28 145.880/145.840
PCSat 01 Mar 23:21:24 23:26:41 48° 53° (NE) 23:31:55 145.827
RS-15 01 Mar 23:37:00 23:48:46 45° 36° (NE) 00:00:07 29.354- 29.394
NO-84 01 Mar 23:41:04 23:43:01 13° 235° (SW) 23:45:01 435.350 FM
SPROUT 01 Mar 23:58:07 00:02:05 38° 262° (W) 00:06:07 437.525
DX 1 02 Mar 00:02:56 00:07:13 62° 258° (WSW) 00:11:32 434.975-435.025
UKube-1 02 Mar 00:04:31 00:08:50 83° 259° (W) 00:13:09 .
Oscar 19 02 Mar 00:11:25 00:14:20 15° 90° (E) 00:17:15 437.125/150
DUCHIFAT 1 02 Mar 00:17:31 00:21:41 52° 287° (WNW) 00:25:49 145.980
FO-29 02 Mar 00:18:03 00:24:10 28° 302° (WNW) 00:29:49 435.910
50 SAT 02 Mar 00:19:33 00:22:12 20° 265° (W) 00:24:51 437.505
VELOX 1 02 Mar 00:30:34 00:33:16 16° 269° (W) 00:35:58 145.980
ITUPSAT 1 02 Mar 00:34:10 00:37:18 18° 61° (ENE) 00:40:27 437.325
EO-79 02 Mar 00:34:47 00:38:32 30° 292° (WNW) 00:42:16 145.935-145.965
BEESAT 02 Mar 00:37:01 00:40:20 19° 62° (ENE) 00:43:38 436.000
NANOSAT C BR1 02 Mar 00:48:42 00:52:08 24° 294° (WNW) 00:55:33 145.865
BUGSAT 1 02 Mar 00:53:23 00:57:36 61° 287° (WNW) 01:01:47 437.445
POLYITAN 1 02 Mar 00:54:28 00:57:36 20° 295° (WNW) 01:00:43 437.675
QB50P2 02 Mar 00:57:55 01:00:45 18° 297° (WNW) 01:03:35 145.880/145.840
PCSat 02 Mar 01:05:18 01:09:49 27° 251° (WSW) 01:14:18 145.827
Gurwin Techsat 1B 02 Mar 01:36:22 01:41:35 52° 100° (E) 01:46:45 435.225
AO-7 02 Mar 01:37:04 01:38:12 10° 84° (E) 01:39:19 .
MOZHAYETS 4 02 Mar 01:47:58 01:52:03 31° 68° (ENE) 01:56:08
Oscar 19 02 Mar 01:49:04 01:54:10 70° 287° (WNW) 01:59:16 437.125/150
RS-15 02 Mar 01:50:00 02:02:13 72° 242° (WSW) 02:13:54 29.354- 29.394
ITUPSAT 1 02 Mar 02:09:54 02:14:39 61° 258° (WSW) 02:19:27 437.325
BEESAT 02 Mar 02:12:58 02:17:40 56° 259° (W) 02:22:24 436.000
AO-85 02 Mar 02:22:12 02:26:17 34° 117° (ESE) 02:30:08 145.980
ITAMSAT 1 02 Mar 02:34:27 02:39:10 33° 96° (E) 02:43:50 435.822/435.867
CUBESAT XI-V 02 Mar 03:01:36 03:05:37 29° 67° (ENE) 03:09:37 437.345
KKS-1 02 Mar 03:16:43 03:21:06 66° 73° (ENE) 03:25:31 437.445
Gurwin Techsat 1B 02 Mar 03:17:03 03:21:10 23° 298° (WNW) 03:25:17 435.225
AO-7 02 Mar 03:24:27 03:32:41 60° 104° (ESE) 03:40:50 .
MOZHAYETS 4 02 Mar 03:25:09 03:29:11 29° 265° (W) 03:33:14
SO-50 02 Mar 03:29:58 03:32:19 14° 32° (NNE) 03:34:37 436.795
Oscar 19 02 Mar 03:31:41 03:32:33 10° 305° (NW) 03:33:25 437.125/150
STARS 02 Mar 03:35:59 03:40:11 48° 71° (ENE) 03:44:25 437.465
BEESAT 3 02 Mar 03:39:21 03:41:08 13° 109° (ESE) 03:42:57 437.485
M-CUBED/EXP-1 PRIME 02 Mar 03:52:19 03:55:24 41° 66° (ENE) 03:58:32 437.505
AO-85 02 Mar 04:02:47 04:06:41 30° 313° (NW) 04:10:25 145.980
RS-15 02 Mar 04:05:18 04:12:17 18° 265° (W) 04:19:09 29.354- 29.394
ITAMSAT 1 02 Mar 04:13:55 04:18:37 34° 294° (WNW) 04:23:17 435.822/435.867
BEESAT 2 02 Mar 04:28:28 04:31:11 18° 112° (ESE) 04:33:55 435.950
CUBESAT XI-V 02 Mar 04:38:49 04:42:55 31° 264° (W) 04:47:02 437.345
KKS-1 02 Mar 04:56:10 04:58:07 13° 270° (W) 05:00:04 437.445
KAITUO 1B 02 Mar 05:08:36 05:10:04 12° 90° (E) 05:11:31 145.475/437.950
SO-50 02 Mar 05:09:08 05:13:38 67° 53° (NE) 05:18:05 436.795
STARS 02 Mar 05:13:54 05:16:47 17° 268° (W) 05:19:42 437.465
BEESAT 3 02 Mar 05:14:21 05:18:13 62° 306° (NW) 05:22:10 437.485
DOVE 4 02 Mar 05:17:16 05:21:28 28° 95° (E) 05:25:50 437.250
AO-7 02 Mar 05:17:47 05:25:03 36° 304° (WNW) 05:32:18 .
XW-2F 02 Mar 05:21:15 05:24:08 20° 94° (E) 05:26:59 145.980 - 146.000
XW-2D 02 Mar 05:29:00 05:32:15 26° 95° (E) 05:35:29 145.860 - 145.880
M-CUBED/EXP-1 PRIME 02 Mar 05:29:17 05:30:10 11° 263° (W) 05:31:03 437.505
XW-2B 02 Mar 05:34:06 05:37:28 29° 96° (E) 05:40:48 145.730 - 145.750
NUDT-PHONESAT 02 Mar 05:35:28 05:38:36 25° 95° (E) 05:41:41 437.300
STRAND 1 02 Mar 05:35:46 05:40:22 34° 67° (ENE) 05:44:59 437.568
O/OREOS (USA 219) 02 Mar 05:41:41 05:44:13 14° 49° (NE) 05:46:46 437.305
XW-2C 02 Mar 05:42:50 05:46:26 37° 98° (E) 05:49:57 145.795 - 145.815
ISS 02 Mar 05:47:34 05:50:42 40° 141° (SE) 05:53:49 437.550
Tancredo 1 02 Mar 05:59:00 06:02:10 53° 144° (SE) 06:05:21 437.200
CUTE-I 02 Mar 06:00:14 06:05:30 52° 100° (E) 06:10:44 437.470
HO-68 02 Mar 06:04:09 06:08:14 16° 88° (E) 06:12:17 435.675
BEESAT 2 02 Mar 06:04:47 06:08:37 46° 310° (NW) 06:12:30 435.950
LilacSat-2 02 Mar 06:05:24 06:09:15 76° 102° (ESE) 06:13:02 437.200
KAITUO 1B 02 Mar 06:40:45 06:44:24 50° 287° (WNW) 06:48:00 145.475/437.950
SO-50 02 Mar 06:51:02 06:53:33 15° 250° (WSW) 06:56:04 436.795
CUTE 1.7 + AOD 2 02 Mar 06:51:37 06:55:13 27° 95° (E) 06:58:47 437.475
DOVE 4 02 Mar 06:54:46 06:59:10 36° 290° (WNW) 07:03:46 437.250
XW-2F 02 Mar 06:54:59 06:58:19 29° 290° (WNW) 07:01:37 145.980 - 146.000
XW-2A 02 Mar 06:55:20 06:58:37 40° 99° (E) 07:01:53 145.665 - 145.685
BEESAT 3 02 Mar 06:55:30 06:56:39 11° 327° (NNW) 06:57:48 437.485
XW-2D 02 Mar 07:03:17 07:06:21 23° 292° (WNW) 07:09:23 145.860 - 145.880
XW-2B 02 Mar 07:08:35 07:11:31 21° 293° (WNW) 07:14:25 145.730 - 145.750
NUDT-PHONESAT 02 Mar 07:09:24 07:12:27 24° 292° (WNW) 07:15:29 437.300
AAUSAT CUBESAT 2 02 Mar 07:12:10 07:14:31 15° 91° (E) 07:16:52 437.432
STRAND 1 02 Mar 07:14:56 07:19:31 32° 264° (W) 07:24:09 437.568
XW-2C 02 Mar 07:17:48 07:20:20 17° 295° (WNW) 07:22:51 145.795 - 145.815
O/OREOS (USA 219) 02 Mar 07:19:38 07:24:14 79° 248° (WSW) 07:28:49 437.305
ISS 02 Mar 07:24:05 07:27:13 37° 339° (NNW) 07:30:20 437.550
Tancredo 1 02 Mar 07:35:35 07:38:33 31° 342° (NNW) 07:41:31 437.200
SEEDS 02 Mar 07:38:01 07:42:08 58° 100° (E) 07:46:14 437.485
YUBILEINY 02 Mar 07:38:55 07:42:10 13° 72° (ENE) 07:45:25 435.215
CUTE-I 02 Mar 07:40:59 07:45:11 24° 298° (WNW) 07:49:22 437.470
HO-68 02 Mar 07:49:44 07:56:56 85° 107° (ESE) 08:04:06 435.675
AO-73 02 Mar 07:50:39 07:53:53 19° 91° (E) 07:57:04 145.935
Oscar 11 02 Mar 07:50:41 07:53:21 16° 91° (E) 07:56:00 .
CUBEBUG 2 02 Mar 08:06:32 08:11:20 81° 103° (ESE) 08:16:00 437.445
PRISM 02 Mar 08:10:16 08:14:11 50° 72° (ENE) 08:18:07 437.425
TIGRISAT 02 Mar 08:24:51 08:28:50 30° 67° (ENE) 08:32:55 435.000
UNISAT 6 02 Mar 08:26:11 08:30:16 33° 68° (ENE) 08:34:27 437.425
CUTE 1.7 + AOD 2 02 Mar 08:27:24 08:31:00 28° 292° (WNW) 08:34:34 437.475
XW-2A 02 Mar 08:29:17 08:31:03 13° 295° (WNW) 08:32:48 145.665 - 145.685
UWE-3 02 Mar 08:32:16 08:36:57 87° 284° (WNW) 08:41:31 435.000/436.395/437.385
ZACube-1 02 Mar 08:40:41 08:45:14 70° 101° (ESE) 08:49:39 437.345
FO-29 02 Mar 08:44:30 08:51:19 40° 63° (ENE) 08:58:28 435.910
AAUSAT CUBESAT 2 02 Mar 08:46:18 08:50:15 48° 288° (WNW) 08:54:13 437.432
ISS 02 Mar 09:01:40 09:04:19 21° 359° (N) 09:06:58 437.550
Tancredo 1 02 Mar 09:12:54 09:15:28 21° 2° (N) 09:18:02 437.200
SEEDS 02 Mar 09:15:09 09:17:22 14° 297° (WNW) 09:19:34 437.485
Oscar 11 02 Mar 09:25:35 09:29:46 49° 288° (WNW) 09:33:55 .
AO-73 02 Mar 09:26:03 09:30:20 44° 289° (WNW) 09:34:32 145.935
YUBILEINY 02 Mar 09:28:28 09:37:08 66° 93° (E) 09:45:49 435.215
DELFI C3 02 Mar 09:29:09 09:33:03 59° 101° (E) 09:36:55 145.870
DUCHIFAT 1 02 Mar 09:36:57 09:39:13 14° 62° (ENE) 09:41:30 145.980
HO-68 02 Mar 09:38:42 09:43:49 22° 306° (NW) 09:48:56 435.675
CUBEBUG 2 02 Mar 09:44:59 09:47:15 13° 300° (WNW) 09:49:30 437.445
PRISM 02 Mar 09:47:32 09:49:45 14° 268° (W) 09:51:59 437.425
EO-79 02 Mar 09:53:04 09:56:29 24° 66° (ENE) 09:59:56 145.935-145.965
AIST 2D 02 Mar 09:56:37 09:59:54 36° 72° (ENE) 10:03:12 435.315
TIGRISAT 02 Mar 10:01:28 10:05:28 30° 265° (W) 10:09:35 435.000
UNISAT 6 02 Mar 10:03:06 10:06:59 27° 266° (W) 10:10:57 437.425
LO-87 02 Mar 10:05:10 10:07:41 18° 93° (E) 10:10:13 145.935 - 145.965
NANOSAT C BR1 02 Mar 10:06:06 10:09:48 30° 68° (ENE) 10:13:31 145.865
UWE-3 02 Mar 10:11:15 10:12:37 11° 302° (WNW) 10:13:59 435.000/436.395/437.385
POLYITAN 1 02 Mar 10:11:46 10:15:42 37° 70° (ENE) 10:19:41 437.675
BUGSAT 1 02 Mar 10:11:54 10:13:22 12° 60° (ENE) 10:14:51 437.445
QB50P2 02 Mar 10:14:54 10:18:55 43° 71° (ENE) 10:22:59 145.880/145.840
ZACube-1 02 Mar 10:18:33 10:20:54 14° 299° (WNW) 10:23:14 437.345
FO-29 02 Mar 10:28:57 10:36:05 50° 263° (W) 10:43:42 435.910
ISS 02 Mar 10:38:24 10:41:28 34° 19° (NNE) 10:44:31 437.550
ESTCUBE 1 02 Mar 10:40:16 10:43:59 25° 95° (E) 10:47:41 437.505/2401.250
Tancredo 1 02 Mar 10:49:15 10:52:20 39° 22° (NNE) 10:55:23 437.200
AO-85 02 Mar 10:51:43 10:55:28 41° 50° (NE) 10:59:13 145.980
DELFI C3 02 Mar 11:05:38 11:07:22 13° 297° (WNW) 11:09:05 145.870
DUCHIFAT 1 02 Mar 11:10:14 11:14:24 60° 259° (W) 11:18:37 145.980
Gurwin Techsat 1B 02 Mar 11:22:11 11:25:02 15° 57° (ENE) 11:27:53 435.225
YUBILEINY 02 Mar 11:27:09 11:34:37 30° 294° (WNW) 11:42:05 435.215
EO-79 02 Mar 11:28:17 11:32:06 32° 263° (W) 11:35:58 145.935-145.965
Oscar 19 02 Mar 11:29:13 11:33:29 27° 64° (ENE) 11:37:45 437.125/150
AIST 2D 02 Mar 11:31:11 11:33:17 15° 268° (W) 11:35:23 435.315
LO-87 02 Mar 11:38:00 11:41:12 30° 290° (WNW) 11:44:25 145.935 - 145.965
NANOSAT C BR1 02 Mar 11:41:58 11:45:30 25° 265° (W) 11:49:04 145.865
SPROUT 02 Mar 11:42:09 11:45:59 30° 96° (E) 11:49:48 437.525
50 SAT 02 Mar 11:42:15 11:44:59 21° 95° (E) 11:47:43 437.505
BUGSAT 1 02 Mar 11:44:03 11:48:08 73° 259° (W) 11:52:17 437.445
POLYITAN 1 02 Mar 11:48:25 11:51:37 21° 267° (W) 11:54:51 437.675
DX 1 02 Mar 11:50:11 11:53:23 20° 93° (E) 11:56:34 434.975-435.025
UKube-1 02 Mar 11:51:23 11:53:44 14° 91° (E) 11:56:06 .
QB50P2 02 Mar 11:52:00 11:54:55 18° 268° (W) 11:57:51 145.880/145.840
BEESAT 3 02 Mar 11:53:02 11:55:44 17° 39° (NE) 11:58:27 437.485
ISS 02 Mar 12:14:50 12:18:03 47° 217° (SW) 12:21:13 437.550
VELOX 1 02 Mar 12:16:45 12:21:11 85° 101° (ESE) 12:25:37 145.980
ESTCUBE 1 02 Mar 12:16:48 12:20:49 33° 292° (WNW) 12:24:50 437.505/2401.250
Tancredo 1 02 Mar 12:25:34 12:28:34 35° 220° (SW) 12:31:32 437.200
AO-85 02 Mar 12:32:47 12:35:33 19° 247° (WSW) 12:38:22 145.980
AO-7 02 Mar 12:35:13 12:41:22 24° 50° (NE) 12:47:32 .
BEESAT 2 02 Mar 12:43:44 12:46:57 22° 42° (NE) 12:50:08 435.950
Gurwin Techsat 1B 02 Mar 12:58:55 13:04:14 87° 255° (WSW) 13:09:36 435.225
Oscar 19 02 Mar 13:07:46 13:12:36 41° 262° (W) 13:17:28 437.125/150
50 SAT 02 Mar 13:15:14 13:18:02 23° 292° (WNW) 13:20:50 437.505
